Location: Young's Pond
(41.2695°N, 72.7766°W)
Time: 01:35:42
(UTC-04:00)

CZ-4B R/B - Visible Passes

Search period start: 02 July 2016 00:00
Search period end: 12 July 2016 00:00
Orbit: 407 x 503 km, 97.5° (Epoch: 30 June)

Date Brightness Start Highest point End Pass type
(mag) Time Alt. Az. Time Alt. Az. Time Alt. Az.
02 Jul 3.6 01:03:41 21° NW 01:03:41 21° NW 01:05:12 10° NW visible
03 Jul 2.9 00:30:04 36° N 00:30:04 36° N 00:32:11 10° NNW visible
03 Jul 3.2 23:56:27 25° NE 23:56:27 25° NE 23:58:32 10° N visible
04 Jul 4.3 01:30:13 11° WNW 01:30:13 11° WNW 01:30:22 10° WNW visible
04 Jul 4.1 23:22:50 12° ENE 23:22:50 12° ENE 23:23:43 10° NE visible
05 Jul 3.5 00:56:35 23° NW 00:56:35 23° NW 00:58:09 10° NNW visible
06 Jul 3.0 00:22:58 34° N 00:22:58 34° N 00:24:58 10° N visible
06 Jul 3.5 23:49:20 21° NE 23:49:20 21° NE 23:51:07 10° NNE visible
07 Jul 4.2 01:23:05 12° WNW 01:23:05 12° WNW 01:23:32 10° NW visible
08 Jul 3.5 00:49:27 24° NW 00:49:27 24° NW 00:51:00 10° NNW visible
09 Jul 3.2 00:15:48 29° NNE 00:15:48 29° NNE 00:17:39 10° N visible
09 Jul 3.7 23:42:09 17° NE 23:42:09 17° NE 23:43:34 10° NNE visible
10 Jul 4.1 01:15:54 13° NW 01:15:54 13° NW 01:16:33 10° NW visible
11 Jul 3.5 00:42:15 25° NNW 00:42:15 25° NNW 00:43:44 10° NNW visible
